Miscellaneous Local Product
Issued by NWS Hastings, NE

Home | Current Version | Previous Version | Text Only | Print | Product List | Glossary Off
Versions: 1 2 3 4 5 6 7 8 9 10 11 12 13 14 15 16 17 18 19 20 21 22 23 24 25 26 27 28 29 30 31 32 33 34 35 36 37 38 39 40 41 42 43 44 45 46 47 48 49 50

000
AXUS43 KGID 261302
MISGRI

GID CWA HOURLY WEATHER ROUNDUP
NATIONAL WEATHER SERVICE HASTINGS NE
800 AM CDT TUE MAY 26 2015

NOTE: "FAIR" INDICATES FEW OR NO CLOUDS BELOW 12,000 FEET WITH NO
SIGNIFICANT WEATHER AND/OR OBSTRUCTIONS TO VISIBILITY.

...SOUTH CENTRAL NEBRASKA...

CITY           SKY/WX    TMP DP  RH WIND       PRES   REMARKS
GRAND ISLAND   PTSUNNY   59  56  89 NW20      29.84R
HASTINGS       CLOUDY    60  56  86 NW18G25   29.82R
KEARNEY        CLOUDY    57  52  82 N17       29.86R
ORD            CLOUDY    56  52  86 NW15      29.86R
YORK           PTSUNNY   57  57 100 NE8       29.79S
AURORA         CLOUDY    59  58  96 NW10      29.82R
LEXINGTON      CLOUDY    56  53  89 N17       29.90R
HOLDREGE       CLOUDY    57  55  91 NW10      29.86R
HEBRON         CLOUDY    59  55  88 SW7       29.78S

...NEBRASKA PANHANDLE...

CITY           SKY/WX    TMP DP  RH WIND       PRES   REMARKS
CHADRON        CLOUDY    54  52  93 N5        29.99S
ALLIANCE       CLOUDY    53  51  93 N6        29.99R
SCOTTSBLUFF    CLOUDY    49  49 100 W6        30.01R
SIDNEY         FOG       48  47  96 NW7       30.01R VSB 1/4

...WESTERN AND NORTH CENTRAL NEBRASKA...

CITY           SKY/WX    TMP DP  RH WIND       PRES   REMARKS
VALENTINE      MOSUNNY   53  50  89 N10       29.95R
AINSWORTH      PTSUNNY   53  51  94 N9        29.92S
ONEILL         CLOUDY    55  53  91 N9        29.88R
BROKEN BOW     MOSUNNY   56  50  80 N18       29.89S
IMPERIAL       MOSUNNY   53  49  86 NW9       29.97R
NORTH PLATTE   PTSUNNY   56  51  84 NW8       29.94R
MCCOOK         MOSUNNY   56  52  86 NW7       29.93R

...EASTERN NEBRASKA...

CITY           SKY/WX    TMP DP  RH WIND       PRES   REMARKS
NORFOLK        CLOUDY    59  58  96 N14       29.80F FOG
SO SIOUX CITY  LGT RAIN  62  59  90 NW5       29.79R FOG
TEKAMAH        CLOUDY    62  60  93 SE6       29.78R
COLUMBUS         N/A    N/A N/A N/A MISG        N/A
ALBION         DRIZZLE   56  55  94 N10G16    29.82R
OMAHA EPPLEY   LGT RAIN  62  60  93 S3        29.78S
OFFUTT AFB     CLOUDY    61  60  96 CALM      29.77S
MILLARD        CLOUDY    62  59  90 CALM      29.78R
LINCOLN        CLOUDY    63  58  83 N3        29.78S
NEBRASKA CITY  RAIN      60  60  98 S6        29.78R
BEATRICE       CLOUDY    61  57  88 SW8       29.77R
FALLS CITY     CLOUDY    61  58  90 S9        29.79R

...NORTHERN KANSAS...

CITY           SKY/WX    TMP DP  RH WIND       PRES   REMARKS
GOODLAND       SUNNY     51  48  89 W9        29.98R
HILL CITY      MOSUNNY   59  52  77 NW12      29.91R
NORTON         SUNNY     54  48  82 W12       29.90R
PHILLIPSBURG   MOSUNNY   59  57  94 W8        29.88R
SMITH CENTER   MOSUNNY   59  55  88 NW12      29.86R
HAYS           SUNNY     57  48  72 W13       29.91R
RUSSELL        SUNNY     58  54  86 W12       29.88R
CONCORDIA      PTSUNNY   59  55  87 W12       29.82R
SALINA         PTSUNNY   60  56  86 SW9       29.86R
TOPEKA         CLOUDY    62  60  93 S9        29.83S



USA.gov is the U.S. government's official web portal to all federal, state and local government web resources and services.